{"data":{"norad_id":66475,"intl_designator":"2025-262V","name":"STARLINK-35538","alt_names":[],"object_type":"PAYLOAD","status":"ACTIVE","operator":null,"country":"US","launch_date":"2025-11-15","launch_site_code":"AFETR","launch_vehicle":null,"mission":null,"orbit_class":"UNKNOWN","rcs_meters":null,"size_class":null,"mass_kg":null,"dimensions":null,"purposes":["comms"],"wikipedia_slug":null,"has_3d_model":false,"image_url":null,"decayed_at":null,"tle_current":{"epoch":"2026-09-20T08:22:05.388672Z","epoch_age_seconds":102411,"freshness":"FRESH","line1":"1 66475U 25262V   26263.34867348  .00008936  00000+0  33380-3 0  9992","line2":"2 66475  43.0016 277.1225 0001115 274.9149  85.1575 15.27585670 48676","mean_motion":15.2758567,"eccentricity":0.0001115,"inclination_deg":43.0016,"raan_deg":277.1225,"arg_perigee_deg":274.9149,"mean_anomaly_deg":85.1575,"bstar":0.0003338,"rev_number":4867,"period_min":94.266398820041,"perigee_km":482.26709771573,"apogee_km":483.79713842906,"semimajor_km":6861.1691180724,"source":"CELESTRAK","updated_at":"2026-09-21T09:00:35.916364Z"}}}